Year,Month,Day,Hour,Minute,Value (Times are PST for temperature in C)
2015,05,20,00,00,16.10
2015,05,20,00,01,16.10
2015,05,20,00,02,16.10
2015,05,20,00,03,16.10
2015,05,20,00,04,16.10
2015,05,20,00,05,16.10
2015,05,20,00,06,16.20
2015,05,20,00,07,16.20
2015,05,20,00,08,16.20
2015,05,20,00,09,16.30
2015,05,20,00,10,16.30
2015,05,20,00,11,16.30
2015,05,20,00,12,16.30
2015,05,20,00,13,16.30
2015,05,20,00,14,16.30
2015,05,20,00,15,16.30
2015,05,20,00,16,16.30
2015,05,20,00,17,16.30
2015,05,20,00,18,16.20
2015,05,20,00,19,16.20
2015,05,20,00,20,16.20
2015,05,20,00,21,16.20
2015,05,20,00,22,16.20
2015,05,20,00,23,16.20
2015,05,20,00,24,16.20
2015,05,20,00,25,16.10
2015,05,20,00,26,16.10
2015,05,20,00,27,16.10
2015,05,20,00,28,16.10
2015,05,20,00,29,16.10
2015,05,20,00,30,16.10
2015,05,20,00,31,16.10
2015,05,20,00,32,16.10
2015,05,20,00,33,16.10
2015,05,20,00,34,16.10
2015,05,20,00,35,16.10
2015,05,20,00,36,16.10
2015,05,20,00,37,16.10
2015,05,20,00,38,16.10
2015,05,20,00,39,16.00
2015,05,20,00,40,16.00
2015,05,20,00,41,16.00
2015,05,20,00,42,16.00
2015,05,20,00,43,15.90
2015,05,20,00,44,15.90
2015,05,20,00,45,15.90
2015,05,20,00,46,15.90
2015,05,20,00,47,15.90
2015,05,20,00,48,15.90
2015,05,20,00,49,15.80
2015,05,20,00,50,15.80
2015,05,20,00,51,15.80
2015,05,20,00,52,15.80
2015,05,20,00,53,15.80
2015,05,20,00,54,15.70
2015,05,20,00,55,15.70
2015,05,20,00,56,15.70
2015,05,20,00,57,15.70
2015,05,20,00,58,15.70
2015,05,20,00,59,15.60
2015,05,20,01,00,15.60
2015,05,20,01,01,15.60
2015,05,20,01,02,15.60
2015,05,20,01,03,15.50
2015,05,20,01,04,15.50
2015,05,20,01,05,15.50
2015,05,20,01,06,15.40
2015,05,20,01,07,15.40
2015,05,20,01,08,15.40
2015,05,20,01,09,15.40
2015,05,20,01,10,15.30
2015,05,20,01,11,15.30
2015,05,20,01,12,15.30
2015,05,20,01,13,15.30
2015,05,20,01,14,15.20
2015,05,20,01,15,15.20
2015,05,20,01,16,15.20
2015,05,20,01,17,15.20
2015,05,20,01,18,15.20
2015,05,20,01,19,15.10
2015,05,20,01,20,15.10
2015,05,20,01,21,15.10
2015,05,20,01,22,15.10
2015,05,20,01,23,15.00
2015,05,20,01,24,15.00
2015,05,20,01,25,15.00
2015,05,20,01,26,15.00
2015,05,20,01,27,14.90
2015,05,20,01,28,14.90
2015,05,20,01,29,14.90
2015,05,20,01,30,14.90
2015,05,20,01,31,14.80
2015,05,20,01,32,14.80
2015,05,20,01,33,14.80
2015,05,20,01,34,14.80
2015,05,20,01,35,14.80
2015,05,20,01,36,14.80
2015,05,20,01,37,14.70
2015,05,20,01,38,14.70
2015,05,20,01,39,14.70
2015,05,20,01,40,14.70
2015,05,20,01,41,14.60
2015,05,20,01,42,14.60
2015,05,20,01,43,14.60
2015,05,20,01,44,14.60
2015,05,20,01,45,14.60
2015,05,20,01,46,14.50
2015,05,20,01,47,14.50
2015,05,20,01,48,14.50
2015,05,20,01,49,14.50
2015,05,20,01,50,14.40
2015,05,20,01,51,14.40
2015,05,20,01,52,14.40
2015,05,20,01,53,14.40
2015,05,20,01,54,14.40
2015,05,20,01,55,14.30
2015,05,20,01,56,14.30
2015,05,20,01,57,14.30
2015,05,20,01,58,14.30
2015,05,20,01,59,14.30
2015,05,20,02,00,14.30
2015,05,20,02,01,14.30
2015,05,20,02,02,14.20
2015,05,20,02,03,14.20
2015,05,20,02,04,14.20
2015,05,20,02,05,14.20
2015,05,20,02,06,14.20
2015,05,20,02,07,14.10
2015,05,20,02,08,14.10
2015,05,20,02,09,14.10
2015,05,20,02,10,14.10
2015,05,20,02,11,14.10
2015,05,20,02,12,14.10
2015,05,20,02,13,14.00
2015,05,20,02,14,14.00
2015,05,20,02,15,14.00
2015,05,20,02,16,13.90
2015,05,20,02,17,13.90
2015,05,20,02,18,13.90
2015,05,20,02,19,13.80
2015,05,20,02,20,13.80
2015,05,20,02,21,13.80
2015,05,20,02,22,13.80
2015,05,20,02,23,13.80
2015,05,20,02,24,13.80
2015,05,20,02,25,13.80
2015,05,20,02,26,13.70
2015,05,20,02,27,13.70
2015,05,20,02,28,13.70
2015,05,20,02,29,13.70
2015,05,20,02,30,13.70
2015,05,20,02,31,13.60
2015,05,20,02,32,13.60
2015,05,20,02,33,13.60
2015,05,20,02,34,13.60
2015,05,20,02,35,13.60
2015,05,20,02,36,13.60
2015,05,20,02,37,13.50
2015,05,20,02,38,13.50
2015,05,20,02,39,13.50
2015,05,20,02,40,13.40
2015,05,20,02,41,13.40
2015,05,20,02,42,13.40
2015,05,20,02,43,13.40
2015,05,20,02,44,13.40
2015,05,20,02,45,13.30
2015,05,20,02,46,13.30
2015,05,20,02,47,13.30
2015,05,20,02,48,13.30
2015,05,20,02,49,13.30
2015,05,20,02,50,13.20
2015,05,20,02,51,13.20
2015,05,20,02,52,13.20
2015,05,20,02,53,13.20
2015,05,20,02,54,13.20
2015,05,20,02,55,13.20
2015,05,20,02,56,13.20
2015,05,20,02,57,13.10
2015,05,20,02,58,13.10
2015,05,20,02,59,13.10
2015,05,20,03,00,13.10
2015,05,20,03,01,13.10
2015,05,20,03,02,13.10
2015,05,20,03,03,13.10
2015,05,20,03,04,13.00
2015,05,20,03,05,13.00
2015,05,20,03,06,13.00
2015,05,20,03,07,13.00
2015,05,20,03,08,12.90
2015,05,20,03,09,12.90
2015,05,20,03,10,12.90
2015,05,20,03,11,12.90
2015,05,20,03,12,12.90
2015,05,20,03,13,12.90
2015,05,20,03,14,12.90
2015,05,20,03,15,12.90
2015,05,20,03,16,12.80
2015,05,20,03,17,12.80
2015,05,20,03,18,12.80
2015,05,20,03,19,12.80
2015,05,20,03,20,12.80
2015,05,20,03,21,12.80
2015,05,20,03,22,12.70
2015,05,20,03,23,12.70
2015,05,20,03,24,12.70
2015,05,20,03,25,12.70
2015,05,20,03,26,12.70
2015,05,20,03,27,12.70
2015,05,20,03,28,12.70
2015,05,20,03,29,12.70
2015,05,20,03,30,12.60
2015,05,20,03,31,12.60
2015,05,20,03,32,12.60
2015,05,20,03,33,12.60
2015,05,20,03,34,12.60
2015,05,20,03,35,12.60
2015,05,20,03,36,12.50
2015,05,20,03,37,12.50
2015,05,20,03,38,12.50
2015,05,20,03,39,12.50
2015,05,20,03,40,12.40
2015,05,20,03,41,12.40
2015,05,20,03,42,12.40
2015,05,20,03,43,12.40
2015,05,20,03,44,12.40
2015,05,20,03,45,12.40
2015,05,20,03,46,12.30
2015,05,20,03,47,12.30
2015,05,20,03,48,12.30
2015,05,20,03,49,12.30
2015,05,20,03,50,12.30
2015,05,20,03,51,12.30
2015,05,20,03,52,12.30
2015,05,20,03,53,12.30
2015,05,20,03,54,12.30
2015,05,20,03,55,12.30
2015,05,20,03,56,12.30
2015,05,20,03,57,12.30
2015,05,20,03,58,12.30
2015,05,20,03,59,12.30
2015,05,20,04,00,12.30
2015,05,20,04,01,12.30
2015,05,20,04,02,12.30
2015,05,20,04,03,12.30
2015,05,20,04,04,12.30
2015,05,20,04,05,12.30
2015,05,20,04,06,12.30
2015,05,20,04,07,12.30
2015,05,20,04,08,12.30
2015,05,20,04,09,12.30
2015,05,20,04,10,12.30
2015,05,20,04,11,12.30
2015,05,20,04,12,12.30
2015,05,20,04,13,12.30
2015,05,20,04,14,12.30
2015,05,20,04,15,12.20
2015,05,20,04,16,12.20
2015,05,20,04,17,12.20
2015,05,20,04,18,12.20
2015,05,20,04,19,12.20
2015,05,20,04,20,12.20
2015,05,20,04,21,12.20
2015,05,20,04,22,12.20
2015,05,20,04,23,12.20
2015,05,20,04,24,12.20
2015,05,20,04,25,12.20
2015,05,20,04,26,12.20
2015,05,20,04,27,12.20
2015,05,20,04,28,12.20
2015,05,20,04,29,12.20
2015,05,20,04,30,12.20
2015,05,20,04,31,12.20
2015,05,20,04,32,12.20
2015,05,20,04,33,12.20
2015,05,20,04,34,12.20
2015,05,20,04,35,12.20
2015,05,20,04,36,12.20
2015,05,20,04,37,12.20
2015,05,20,04,38,12.10
2015,05,20,04,39,12.10
2015,05,20,04,40,12.10
2015,05,20,04,41,12.10
2015,05,20,04,42,12.10
2015,05,20,04,43,12.10
2015,05,20,04,44,12.10
2015,05,20,04,45,12.10
2015,05,20,04,46,12.10
2015,05,20,04,47,12.10
2015,05,20,04,48,12.20
2015,05,20,04,49,12.20
2015,05,20,04,50,12.20
2015,05,20,04,51,12.20
2015,05,20,04,52,12.20
2015,05,20,04,53,12.20
2015,05,20,04,54,12.20
2015,05,20,04,55,12.20
2015,05,20,04,56,12.20
2015,05,20,04,57,12.20
2015,05,20,04,58,12.20
2015,05,20,04,59,12.20
2015,05,20,05,00,12.20
2015,05,20,05,01,12.20
2015,05,20,05,02,12.20
2015,05,20,05,03,12.20
2015,05,20,05,04,12.20
2015,05,20,05,05,12.20
2015,05,20,05,06,12.20
2015,05,20,05,07,12.20
2015,05,20,05,08,12.20
2015,05,20,05,09,12.20
2015,05,20,05,10,12.20
2015,05,20,05,11,12.10
2015,05,20,05,12,12.10
2015,05,20,05,13,12.10
2015,05,20,05,14,12.10
2015,05,20,05,15,12.10
2015,05,20,05,16,12.10
2015,05,20,05,17,12.10
2015,05,20,05,18,12.00
2015,05,20,05,19,12.00
2015,05,20,05,20,12.00
2015,05,20,05,21,12.00
2015,05,20,05,22,12.00
2015,05,20,05,23,12.00
2015,05,20,05,24,11.90
2015,05,20,05,25,11.90
2015,05,20,05,26,11.90
2015,05,20,05,27,11.90
2015,05,20,05,28,11.90
2015,05,20,05,29,11.90
2015,05,20,05,30,11.80
2015,05,20,05,31,11.80
2015,05,20,05,32,11.80
2015,05,20,05,33,11.80
2015,05,20,05,34,11.80
2015,05,20,05,35,11.80
2015,05,20,05,36,11.70
2015,05,20,05,37,11.70
2015,05,20,05,38,11.70
2015,05,20,05,39,11.70
2015,05,20,05,40,11.70
2015,05,20,05,41,11.70
2015,05,20,05,42,11.70
2015,05,20,05,43,11.70
2015,05,20,05,44,11.70
2015,05,20,05,45,11.70
2015,05,20,05,46,11.70
2015,05,20,05,47,11.70
2015,05,20,05,48,11.70
2015,05,20,05,49,11.70
2015,05,20,05,50,11.70
2015,05,20,05,51,11.60
2015,05,20,05,52,11.60
2015,05,20,05,53,11.60
2015,05,20,05,54,11.60
2015,05,20,05,55,11.60
2015,05,20,05,56,11.70
2015,05,20,05,57,11.70
2015,05,20,05,58,11.70
2015,05,20,05,59,11.70
2015,05,20,06,00,11.70
2015,05,20,06,01,11.70
2015,05,20,06,02,11.70
2015,05,20,06,03,11.70
2015,05,20,06,04,11.70
2015,05,20,06,05,11.80
2015,05,20,06,06,11.80
2015,05,20,06,07,11.80
2015,05,20,06,08,11.80
2015,05,20,06,09,11.80
2015,05,20,06,10,11.90
2015,05,20,06,11,11.90
2015,05,20,06,12,11.90
2015,05,20,06,13,11.90
2015,05,20,06,14,11.90
2015,05,20,06,15,11.90
2015,05,20,06,16,11.90
2015,05,20,06,17,12.00
2015,05,20,06,18,12.00
2015,05,20,06,19,12.00
2015,05,20,06,20,12.00
2015,05,20,06,21,12.00
2015,05,20,06,22,12.00
2015,05,20,06,23,12.00
2015,05,20,06,24,12.10
2015,05,20,06,25,12.10
2015,05,20,06,26,12.10
2015,05,20,06,27,12.10
2015,05,20,06,28,12.10
2015,05,20,06,29,12.10
2015,05,20,06,30,12.10
2015,05,20,06,31,12.10
2015,05,20,06,32,12.10
2015,05,20,06,33,12.10
2015,05,20,06,34,12.10
2015,05,20,06,35,12.10
2015,05,20,06,36,12.20
2015,05,20,06,37,12.20
2015,05,20,06,38,12.20
2015,05,20,06,39,12.20
2015,05,20,06,40,12.20
2015,05,20,06,41,12.20
2015,05,20,06,42,12.20
2015,05,20,06,43,12.30
2015,05,20,06,44,12.30
2015,05,20,06,45,12.30
2015,05,20,06,46,12.30
2015,05,20,06,47,12.30
2015,05,20,06,48,12.30
2015,05,20,06,49,12.30
2015,05,20,06,50,12.40
2015,05,20,06,51,12.40
2015,05,20,06,52,12.40
2015,05,20,06,53,12.40
2015,05,20,06,54,12.40
2015,05,20,06,55,12.50
2015,05,20,06,56,12.50
2015,05,20,06,57,12.60
2015,05,20,06,58,12.60
2015,05,20,06,59,12.60
2015,05,20,07,00,12.60
2015,05,20,07,01,12.60
2015,05,20,07,02,12.60
2015,05,20,07,03,12.70
2015,05,20,07,04,12.70
2015,05,20,07,05,12.70
2015,05,20,07,06,12.70
2015,05,20,07,07,12.70
2015,05,20,07,08,12.80
2015,05,20,07,09,12.80
2015,05,20,07,10,12.80
2015,05,20,07,11,12.90
2015,05,20,07,12,12.90
2015,05,20,07,13,12.90
2015,05,20,07,14,12.90
2015,05,20,07,15,13.00
2015,05,20,07,16,13.00
2015,05,20,07,17,13.00
2015,05,20,07,18,13.00
2015,05,20,07,19,13.00
2015,05,20,07,20,13.00
2015,05,20,07,21,13.00
2015,05,20,07,22,13.10
2015,05,20,07,23,13.10
2015,05,20,07,24,13.10
2015,05,20,07,25,13.10
2015,05,20,07,26,13.10
2015,05,20,07,27,13.20
2015,05,20,07,28,13.20
2015,05,20,07,29,13.20
2015,05,20,07,30,13.20
2015,05,20,07,31,13.30
2015,05,20,07,32,13.30
2015,05,20,07,33,13.40
2015,05,20,07,34,13.40
2015,05,20,07,35,13.40
2015,05,20,07,36,13.50
2015,05,20,07,37,13.50
2015,05,20,07,38,13.60
2015,05,20,07,39,13.60
2015,05,20,07,40,13.60
2015,05,20,07,41,13.70
2015,05,20,07,42,13.70
2015,05,20,07,43,13.70
2015,05,20,07,44,13.80
2015,05,20,07,45,13.80
2015,05,20,07,46,13.80
2015,05,20,07,47,13.70
2015,05,20,07,48,13.70
2015,05,20,07,49,13.80
2015,05,20,07,50,13.80
2015,05,20,07,51,13.80
2015,05,20,07,52,13.80
2015,05,20,07,53,13.80
2015,05,20,07,54,13.80
2015,05,20,07,55,13.90
2015,05,20,07,56,13.90
2015,05,20,07,57,14.00
2015,05,20,07,58,14.10
2015,05,20,07,59,14.10
2015,05,20,08,00,14.20
2015,05,20,08,01,14.20
2015,05,20,08,02,14.20
2015,05,20,08,03,14.30
2015,05,20,08,04,14.30
2015,05,20,08,05,14.30
2015,05,20,08,06,14.40
2015,05,20,08,07,14.40
2015,05,20,08,08,14.50
2015,05,20,08,09,14.50
2015,05,20,08,10,14.50
2015,05,20,08,11,14.50
2015,05,20,08,12,14.50
2015,05,20,08,13,14.50
2015,05,20,08,14,14.50
2015,05,20,08,15,14.50
2015,05,20,08,16,14.50
2015,05,20,08,17,14.50
2015,05,20,08,18,14.50
2015,05,20,08,19,14.50
2015,05,20,08,20,14.50
2015,05,20,08,21,14.50
2015,05,20,08,22,14.60
2015,05,20,08,23,14.60
2015,05,20,08,24,14.60
2015,05,20,08,25,14.70
2015,05,20,08,26,14.70
2015,05,20,08,27,14.70
2015,05,20,08,28,14.70
2015,05,20,08,29,14.70
2015,05,20,08,30,14.70
2015,05,20,08,31,14.70
2015,05,20,08,32,14.70
2015,05,20,08,33,14.80
2015,05,20,08,34,14.90
2015,05,20,08,35,14.90
2015,05,20,08,36,14.90
2015,05,20,08,37,15.00
2015,05,20,08,38,15.10
2015,05,20,08,39,15.10
2015,05,20,08,40,15.10
2015,05,20,08,41,15.10
2015,05,20,08,42,15.10
2015,05,20,08,43,15.10
2015,05,20,08,44,15.10
2015,05,20,08,45,15.10
2015,05,20,08,46,15.10
2015,05,20,08,47,15.10
2015,05,20,08,48,15.10
2015,05,20,08,49,15.20
2015,05,20,08,50,15.20
2015,05,20,08,51,15.30
2015,05,20,08,52,15.30
2015,05,20,08,53,15.40
2015,05,20,08,54,15.50
2015,05,20,08,55,15.50
2015,05,20,08,56,15.60
2015,05,20,08,57,15.60
2015,05,20,08,58,15.60
2015,05,20,08,59,15.50
2015,05,20,09,00,15.50
2015,05,20,09,01,15.50
2015,05,20,09,02,15.60
2015,05,20,09,03,15.60
2015,05,20,09,04,15.60
2015,05,20,09,05,15.70
2015,05,20,09,06,15.70
2015,05,20,09,07,15.80
2015,05,20,09,08,15.70
2015,05,20,09,09,15.80
2015,05,20,09,10,15.80
2015,05,20,09,11,15.80
2015,05,20,09,12,15.80
2015,05,20,09,13,15.90
2015,05,20,09,14,15.90
2015,05,20,09,15,15.90
2015,05,20,09,16,15.90
2015,05,20,09,17,16.00
2015,05,20,09,18,16.10
2015,05,20,09,19,16.10
2015,05,20,09,20,16.20
2015,05,20,09,21,16.30
2015,05,20,09,22,16.30
2015,05,20,09,23,16.40
2015,05,20,09,24,16.40
2015,05,20,09,25,16.50
2015,05,20,09,26,16.60
2015,05,20,09,27,16.60
2015,05,20,09,28,16.70
2015,05,20,09,29,16.70
2015,05,20,09,30,16.70
2015,05,20,09,31,16.70
2015,05,20,09,32,16.80
2015,05,20,09,33,16.80
2015,05,20,09,34,16.80
2015,05,20,09,35,16.70
2015,05,20,09,36,16.70
2015,05,20,09,37,16.60
2015,05,20,09,38,16.60
2015,05,20,09,39,16.50
2015,05,20,09,40,16.40
2015,05,20,09,41,16.30
2015,05,20,09,42,16.30
2015,05,20,09,43,16.30
2015,05,20,09,44,16.30
2015,05,20,09,45,16.30
2015,05,20,09,46,16.30
2015,05,20,09,47,16.40
2015,05,20,09,48,16.50
2015,05,20,09,49,16.50
2015,05,20,09,50,16.60
2015,05,20,09,51,16.60
2015,05,20,09,52,16.70
2015,05,20,09,53,16.80
2015,05,20,09,54,16.80
2015,05,20,09,55,16.90
2015,05,20,09,56,17.00
2015,05,20,09,57,17.10
2015,05,20,09,58,17.20
2015,05,20,09,59,17.30
2015,05,20,10,00,17.30
2015,05,20,10,01,17.40
2015,05,20,10,02,17.40
2015,05,20,10,03,17.30
2015,05,20,10,04,17.30
2015,05,20,10,05,17.30
2015,05,20,10,06,17.30
2015,05,20,10,07,17.30
2015,05,20,10,08,17.30
2015,05,20,10,09,17.30
2015,05,20,10,10,17.30
2015,05,20,10,11,17.30
2015,05,20,10,12,17.40
2015,05,20,10,13,17.40
2015,05,20,10,14,17.40
2015,05,20,10,15,17.30
2015,05,20,10,16,17.30
2015,05,20,10,17,17.30
2015,05,20,10,18,17.40
2015,05,20,10,19,17.40
2015,05,20,10,20,17.50
2015,05,20,10,21,17.60
2015,05,20,10,22,17.70
2015,05,20,10,23,17.80
2015,05,20,10,24,17.80
2015,05,20,10,25,17.90
2015,05,20,10,26,17.90
2015,05,20,10,27,17.80
2015,05,20,10,28,17.90
2015,05,20,10,29,17.90
2015,05,20,10,30,18.00
2015,05,20,10,31,18.00
2015,05,20,10,32,18.10
2015,05,20,10,33,18.10
2015,05,20,10,34,18.10
2015,05,20,10,35,18.10
2015,05,20,10,36,18.10
2015,05,20,10,37,18.10
2015,05,20,10,38,18.20
2015,05,20,10,39,18.30
2015,05,20,10,40,18.30
2015,05,20,10,41,18.30
2015,05,20,10,42,18.30
2015,05,20,10,43,18.20
2015,05,20,10,44,18.30
2015,05,20,10,45,18.30
2015,05,20,10,46,18.30
2015,05,20,10,47,18.30
2015,05,20,10,48,18.30
2015,05,20,10,49,18.40
2015,05,20,10,50,18.50
2015,05,20,10,51,18.60
2015,05,20,10,52,18.60
2015,05,20,10,53,18.60
2015,05,20,10,54,18.60
2015,05,20,10,55,18.60
2015,05,20,10,56,18.50
2015,05,20,10,57,18.50
2015,05,20,10,58,18.50
2015,05,20,10,59,18.60
2015,05,20,11,00,18.60
2015,05,20,11,01,18.60
2015,05,20,11,02,18.60
2015,05,20,11,03,18.50
2015,05,20,11,04,18.60
2015,05,20,11,05,18.60
2015,05,20,11,06,18.60
2015,05,20,11,07,18.60
2015,05,20,11,08,18.60
2015,05,20,11,09,18.60
2015,05,20,11,10,18.60
2015,05,20,11,11,18.60
2015,05,20,11,12,18.60
2015,05,20,11,13,18.60
2015,05,20,11,14,18.50
2015,05,20,11,15,18.50
2015,05,20,11,16,18.40
2015,05,20,11,17,18.40
2015,05,20,11,18,18.30
2015,05,20,11,19,18.30
2015,05,20,11,20,18.30
2015,05,20,11,21,18.30
2015,05,20,11,22,18.30
2015,05,20,11,23,18.30
2015,05,20,11,24,18.40
2015,05,20,11,25,18.40
2015,05,20,11,26,18.50
2015,05,20,11,27,18.50
2015,05,20,11,28,18.60
2015,05,20,11,29,18.60
2015,05,20,11,30,18.70
2015,05,20,11,31,18.70
2015,05,20,11,32,18.80
2015,05,20,11,33,18.90
2015,05,20,11,34,19.00
2015,05,20,11,35,19.10
2015,05,20,11,36,19.20
2015,05,20,11,37,19.30
2015,05,20,11,38,19.40
2015,05,20,11,39,19.40
2015,05,20,11,40,19.40
2015,05,20,11,41,19.30
2015,05,20,11,42,19.30
2015,05,20,11,43,19.30
2015,05,20,11,44,19.40
2015,05,20,11,45,19.50
2015,05,20,11,46,19.60
2015,05,20,11,47,19.70
2015,05,20,11,48,19.70
2015,05,20,11,49,19.70
2015,05,20,11,50,19.70
2015,05,20,11,51,19.60
2015,05,20,11,52,19.60
2015,05,20,11,53,19.50
2015,05,20,11,54,19.50
2015,05,20,11,55,19.50
2015,05,20,11,56,19.60
2015,05,20,11,57,19.60
2015,05,20,11,58,19.70
2015,05,20,11,59,19.70
2015,05,20,12,00,19.80
2015,05,20,12,01,19.80
2015,05,20,12,02,19.80
2015,05,20,12,03,19.90
2015,05,20,12,04,19.90
2015,05,20,12,05,19.90
2015,05,20,12,06,20.00
2015,05,20,12,07,20.10
2015,05,20,12,08,20.00
2015,05,20,12,09,19.90
2015,05,20,12,10,19.70
2015,05,20,12,11,19.60
2015,05,20,12,12,19.50
2015,05,20,12,13,19.50
2015,05,20,12,14,19.50
2015,05,20,12,15,19.60
2015,05,20,12,16,19.60
2015,05,20,12,17,19.50
2015,05,20,12,18,19.50
2015,05,20,12,19,19.30
2015,05,20,12,20,19.30
2015,05,20,12,21,19.30
2015,05,20,12,22,19.30
2015,05,20,12,23,19.20
2015,05,20,12,24,19.10
2015,05,20,12,25,19.10
2015,05,20,12,26,19.00
2015,05,20,12,27,19.00
2015,05,20,12,28,19.00
2015,05,20,12,29,19.00
2015,05,20,12,30,19.00
2015,05,20,12,31,19.10
2015,05,20,12,32,19.10
2015,05,20,12,33,19.10
2015,05,20,12,34,19.10
2015,05,20,12,35,19.10
2015,05,20,12,36,19.10
2015,05,20,12,37,19.10
2015,05,20,12,38,19.20
2015,05,20,12,39,19.30
2015,05,20,12,40,19.30
2015,05,20,12,41,19.30
2015,05,20,12,42,19.30
2015,05,20,12,43,19.30
2015,05,20,12,44,19.40
2015,05,20,12,45,19.60
2015,05,20,12,46,19.70
2015,05,20,12,47,19.80
2015,05,20,12,48,19.80
2015,05,20,12,49,19.90
2015,05,20,12,50,19.90
2015,05,20,12,51,20.00
2015,05,20,12,52,20.20
2015,05,20,12,53,20.20
2015,05,20,12,54,20.30
2015,05,20,12,55,20.30
2015,05,20,12,56,20.30
2015,05,20,12,57,20.40
2015,05,20,12,58,20.40
2015,05,20,12,59,20.40
2015,05,20,13,00,20.50
2015,05,20,13,01,20.50
2015,05,20,13,02,20.60
2015,05,20,13,03,20.60
2015,05,20,13,04,20.70
2015,05,20,13,05,20.70
2015,05,20,13,06,20.70
2015,05,20,13,07,20.80
2015,05,20,13,08,20.90
2015,05,20,13,09,20.90
2015,05,20,13,10,21.00
2015,05,20,13,11,21.10
2015,05,20,13,12,21.10
2015,05,20,13,13,21.10
2015,05,20,13,14,21.20
2015,05,20,13,15,21.30
2015,05,20,13,16,21.30
2015,05,20,13,17,21.30
2015,05,20,13,18,21.30
2015,05,20,13,19,21.20
2015,05,20,13,20,21.10
2015,05,20,13,21,21.00
2015,05,20,13,22,20.90
2015,05,20,13,23,20.90
2015,05,20,13,24,21.00
2015,05,20,13,25,21.10
2015,05,20,13,26,21.10
2015,05,20,13,27,21.20
2015,05,20,13,28,21.40
2015,05,20,13,29,21.50
2015,05,20,13,30,21.50
2015,05,20,13,31,21.50
2015,05,20,13,32,21.50
2015,05,20,13,33,21.60
2015,05,20,13,34,21.60
2015,05,20,13,35,21.60
2015,05,20,13,36,21.60
2015,05,20,13,37,21.70
2015,05,20,13,38,21.70
2015,05,20,13,39,21.80
2015,05,20,13,40,21.80
2015,05,20,13,41,21.90
2015,05,20,13,42,21.90
2015,05,20,13,43,22.00
2015,05,20,13,44,22.00
2015,05,20,13,45,22.00
2015,05,20,13,46,22.10
2015,05,20,13,47,22.10
2015,05,20,13,48,22.20
2015,05,20,13,49,22.20
2015,05,20,13,50,22.20
2015,05,20,13,51,22.20
2015,05,20,13,52,22.10
2015,05,20,13,53,22.10
2015,05,20,13,54,22.00
2015,05,20,13,55,22.00
2015,05,20,13,56,21.90
2015,05,20,13,57,21.90
2015,05,20,13,58,21.90
2015,05,20,13,59,21.90
2015,05,20,14,00,21.90
2015,05,20,14,01,21.80
2015,05,20,14,02,21.80
2015,05,20,14,03,21.90
2015,05,20,14,04,21.90
2015,05,20,14,05,21.90
2015,05,20,14,06,21.90
2015,05,20,14,07,21.80
2015,05,20,14,08,21.80
2015,05,20,14,09,21.90
2015,05,20,14,10,21.90
2015,05,20,14,11,21.90
2015,05,20,14,12,21.90
2015,05,20,14,13,21.90
2015,05,20,14,14,22.00
2015,05,20,14,15,22.00
2015,05,20,14,16,22.00
2015,05,20,14,17,22.10
2015,05,20,14,18,22.10
2015,05,20,14,19,22.20
2015,05,20,14,20,22.30
2015,05,20,14,21,22.40
2015,05,20,14,22,22.50
2015,05,20,14,23,22.60
2015,05,20,14,24,22.70
2015,05,20,14,25,22.70
2015,05,20,14,26,22.70
2015,05,20,14,27,22.80
2015,05,20,14,28,22.80
2015,05,20,14,29,22.90
2015,05,20,14,30,22.90
2015,05,20,14,31,23.00
2015,05,20,14,32,23.00
2015,05,20,14,33,23.10
2015,05,20,14,34,23.20
2015,05,20,14,35,23.20
2015,05,20,14,36,23.20
2015,05,20,14,37,23.20
2015,05,20,14,38,23.20
2015,05,20,14,39,23.20
2015,05,20,14,40,23.20
2015,05,20,14,41,23.30
2015,05,20,14,42,23.40
2015,05,20,14,43,23.50
2015,05,20,14,44,23.60
2015,05,20,14,45,23.70
2015,05,20,14,46,23.70
2015,05,20,14,47,23.80
2015,05,20,14,48,23.90
2015,05,20,14,49,23.90
2015,05,20,14,50,23.90
2015,05,20,14,51,23.90
2015,05,20,14,52,23.90
2015,05,20,14,53,23.90
2015,05,20,14,54,23.90
2015,05,20,14,55,23.90
2015,05,20,14,56,24.00
2015,05,20,14,57,24.00
2015,05,20,14,58,24.00
2015,05,20,14,59,24.00
2015,05,20,15,00,24.00
2015,05,20,15,01,24.00
2015,05,20,15,02,24.00
2015,05,20,15,03,24.10
2015,05,20,15,04,24.10
2015,05,20,15,05,24.10
2015,05,20,15,06,24.10
2015,05,20,15,07,24.10
2015,05,20,15,08,24.10
2015,05,20,15,09,24.20
2015,05,20,15,10,24.20
2015,05,20,15,11,24.20
2015,05,20,15,12,24.20
2015,05,20,15,13,24.20
2015,05,20,15,14,24.20
2015,05,20,15,15,24.20
2015,05,20,15,16,24.20
2015,05,20,15,17,24.20
2015,05,20,15,18,24.20
2015,05,20,15,19,24.20
2015,05,20,15,20,24.20
2015,05,20,15,21,24.20
2015,05,20,15,22,24.20
2015,05,20,15,23,24.20
2015,05,20,15,24,24.20
2015,05,20,15,25,24.20
2015,05,20,15,26,24.20
2015,05,20,15,27,24.20
2015,05,20,15,28,24.20
2015,05,20,15,29,24.20
2015,05,20,15,30,24.30
2015,05,20,15,31,24.40
2015,05,20,15,32,24.40
2015,05,20,15,33,24.50
2015,05,20,15,34,24.60
2015,05,20,15,35,24.60
2015,05,20,15,36,24.60
2015,05,20,15,37,24.60
2015,05,20,15,38,24.50
2015,05,20,15,39,24.50
2015,05,20,15,40,24.50
2015,05,20,15,41,24.50
2015,05,20,15,42,24.50
2015,05,20,15,43,24.50
2015,05,20,15,44,24.50
2015,05,20,15,45,24.60
2015,05,20,15,46,24.60
2015,05,20,15,47,24.70
2015,05,20,15,48,24.80
2015,05,20,15,49,24.80
2015,05,20,15,50,24.80
2015,05,20,15,51,24.80
2015,05,20,15,52,24.80
2015,05,20,15,53,24.90
2015,05,20,15,54,25.00
2015,05,20,15,55,25.00
2015,05,20,15,56,24.90
2015,05,20,15,57,24.80
2015,05,20,15,58,24.70
2015,05,20,15,59,24.70
2015,05,20,16,00,24.80
2015,05,20,16,01,24.80
2015,05,20,16,02,24.80
2015,05,20,16,03,24.90
2015,05,20,16,04,24.90
2015,05,20,16,05,25.00
2015,05,20,16,06,25.10
2015,05,20,16,07,25.10
2015,05,20,16,08,25.10
2015,05,20,16,09,25.20
2015,05,20,16,10,25.20
2015,05,20,16,11,25.20
2015,05,20,16,12,25.20
2015,05,20,16,13,25.20
2015,05,20,16,14,25.20
2015,05,20,16,15,25.20
2015,05,20,16,16,25.20
2015,05,20,16,17,25.30
2015,05,20,16,18,25.30
2015,05,20,16,19,25.40
2015,05,20,16,20,25.50
2015,05,20,16,21,25.50
2015,05,20,16,22,25.50
2015,05,20,16,23,25.50
2015,05,20,16,24,25.40
2015,05,20,16,25,25.40
2015,05,20,16,26,25.40
2015,05,20,16,27,25.50
2015,05,20,16,28,25.50
2015,05,20,16,29,25.50
2015,05,20,16,30,25.60
2015,05,20,16,31,25.60
2015,05,20,16,32,25.70
2015,05,20,16,33,25.70
2015,05,20,16,34,25.70
2015,05,20,16,35,25.80
2015,05,20,16,36,25.90
2015,05,20,16,37,26.00
2015,05,20,16,38,26.10
2015,05,20,16,39,26.10
2015,05,20,16,40,26.20
2015,05,20,16,41,26.30
2015,05,20,16,42,26.30
2015,05,20,16,43,26.40
2015,05,20,16,44,26.40
2015,05,20,16,45,26.50
2015,05,20,16,46,26.50
2015,05,20,16,47,26.40
2015,05,20,16,48,26.30
2015,05,20,16,49,26.10
2015,05,20,16,50,26.00
2015,05,20,16,51,25.90
2015,05,20,16,52,25.80
2015,05,20,16,53,25.70
2015,05,20,16,54,25.70
2015,05,20,16,55,25.60
2015,05,20,16,56,25.60
2015,05,20,16,57,25.60
2015,05,20,16,58,25.50
2015,05,20,16,59,25.50
2015,05,20,17,00,25.40
2015,05,20,17,01,25.40
2015,05,20,17,02,25.40
2015,05,20,17,03,25.40
2015,05,20,17,04,25.30
2015,05,20,17,05,25.40
2015,05,20,17,06,25.50
2015,05,20,17,07,25.50
2015,05,20,17,08,25.60
2015,05,20,17,09,25.60
2015,05,20,17,10,25.60
2015,05,20,17,11,25.60
2015,05,20,17,12,25.50
2015,05,20,17,13,25.50
2015,05,20,17,14,25.40
2015,05,20,17,15,25.40
2015,05,20,17,16,25.40
2015,05,20,17,17,25.40
2015,05,20,17,18,25.50
2015,05,20,17,19,25.50